Location: Bennemühlen
(52.5740°N, 9.7135°E)
Time: 20:37:43
(UTC+00:00)

Vanguard 2 Rocket - Pass Details

Date: 16 February 2026
Orbit: 553 x 3286 km, 32.9° (Epoch: 8 March)

Event Time Altitude Azimuth Distance (km) Brightness Sun altitude
Rises 15:51:20 0° 257° (WSW) 6,350 13.1 5.3°
Reaches altitude 10° 15:57:16 10° 245° (WSW) 4,834 13.6 4.5°
Maximum altitude 16:05:55 22° 202° (SSW) 3,102 10.4 3.3°
Drops below altitude 10° 16:12:01 10° 156° (SSE) 3,253 9.8 2.5°
Sets 16:15:03 0° 140° (SE) 3,864 10.0 2.1°
